CZ-3C DEB, 40832

Orbit data source: Space-Track

CZ-3C DEB, 40832 is space debris in HEO originally from a launch on Sun, 31 Oct 2010 UTC launched from the Xichang Space Center, China (XSC). Debris objects in space refer to the collection of defunct objects orbiting the Earth. Examples of debris include non-operational satellites, rocket bodies, and fragments generated from explosions, collisions, or faulty payload assembly.

Loading next visibility...
CZ-3C DEB details
Identifier
40832, 2010-057AZ
Orbit
HEO
Last TLE update2 months ago
Origin
Flag of CNCASC (CN / PRC)
ManufacturerCALT
MissionSpacecraft
Bus & MotorUnknown
MassUnknown
Launch date (UTC)
2010-10-31 (14 years ago)
Launch vehicleUnknown
Launch site
Xichang Space Center, China (XSC)
Object type
Payload
Rocket body
Debris
Shape & HBRUnknown
Radar Cross SectionMedium (>0.1 m² and <1 m²)

Expand to show TLE details & history

TLE from 2 months ago
0 CZ-3C DEB
1 40832U 10057AZ  24307.18927890  .00000428  00000-0  37392-2 0  9990
2 40832  19.9495 238.7356 7172897 268.6665  16.1871  2.26618630 79802
Epoch: 2024-11-02T04:32Z
Definitive object data (Epoch: 2024-11-02T04:32:33.696Z)
Latitude0.00007°
Longitude128.58711°
Altitude5,724.723 km
Speed7.042 km/s
True Right ascension15h 54m 41s
True Declination0° 00' 00"
Sunlit
Object was in daylight at TLE epoch
Visualization TLE readout
Latitude17.2383°
Longitude-137.37784°
Altitude31,227.979 km
Speed2.217 km/s
Apparent Right ascension21h 39m 47s
Apparent Declination11° 26' 17"
Sunlit
Object is in daylight
Visualization observer readout
Local Sidereal Time03:07:29
Azimuth273.758° WNW
Elevation13.465°
Doppler factor1
Orbital elements
Apogee altitude35,674.489 km
Perigee altitude544.813 km
Semi-major axis24,487.788 km
Eccentricity0.7172897
Inclination19.9495°
RAAN238.7356°
Arg. of periapsis268.6665°
True anomaly91.8879°
Mean anomaly16.1871°
Eccentric anomaly45.50007°
Mean motion0.56639 °/min
BSTAR0.0037392
Orbital period635.6 mins
Loading maneuver chart data...
Loading historical data...
Loading historical data...
Loading historical data...
Loading historical data...
Loading historical data...
Loading historical data...
Loading historical data...

CZ-3C DEB Visibility forecast

Observer location: undefined°, undefined

Span
Click to sort rows by Start time (UTC) header in descending order
Start Az.
Max El. time (UTC)
Max El. Az.
Max El.
End time (UTC)
End Az.
43 mins2025-01-14 02:32:41.769Z273.741° WNW2025-01-14 02:32:41.769Z273.741° WNW13.102°2025-01-14 03:15:41.769Z275.044° WNW
329 mins2025-01-14 21:03:41.769Z260.956° W2025-01-14 22:47:41.769Z238.94° WSW37.259°2025-01-15 02:32:41.769Z251.984° W
|